Date String (YYYY-MM-DD hh:mm:ss) UTC,Instrument flags,absolute air pressure of the measurement (hPa),sample flow rate (lpm),inlet stack bypass flow (lpm),air temperature of the measurement (°C),ambient temperature measured by the external sensor (°C),aerosol sample conditioner tube jacket temperature (°C),OPC LED temperature (°C),internal box temperature (°C),relative humidity of the measurement (%),span deviation,mass concentration of particles derived from Lorenz-Mie calculation of OPC scattering (μg/m³),mass concentration of particles derived from Lorenz-Mie calculation of OPC scattering (μg/m³),mass concentration of particles derived from Lorenz-Mie calculation of OPC scattering (μg/m³)
DateTimeUTC,F1_M11,P_M11,Q1_M11,Q2_M11,T1_M11,T2_M11,T3_M11,T4_M11,T5_M11,U1_M11,ZSPAN_M11,X2_M11,X0_M11,X1_M11
2023-09-06 14:00:00,SystemResetWarning,0834.5,5.01,000.00,028.6,025.8,000.0,037.2,029.9,25.6,0002.3,0023.35,0036.10,0021.95
2023-09-06 14:01:00,SystemResetWarning,0834.6,5.00,000.00,028.6,026.1,000.0,037.2,029.9,25.6,0002.4,0023.23,0035.99,0021.84
2023-09-06 14:02:00,SystemResetWarning,0834.6,5.00,000.00,028.6,026.3,000.0,037.2,029.9,25.6,0002.3,0023.18,0036.83,0021.79
2023-09-06 14:03:00,SystemResetWarning,0834.5,5.00,000.00,028.6,026.5,000.0,037.1,030.0,26.0,0002.4,0023.16,0036.24,0021.79
2023-09-06 14:04:00,SystemResetWarning,0834.4,5.00,000.00,028.6,026.7,000.0,037.1,030.0,25.7,0002.3,0023.11,0036.12,0021.76
2023-09-06 14:05:00,SystemResetWarning,0834.4,5.00,000.00,028.6,026.9,000.0,037.1,030.1,25.7,0002.5,0022.95,0035.34,0021.64
2023-09-06 14:06:00,SystemResetWarning,0834.5,5.00,000.00,028.6,027.0,000.0,037.1,030.1,25.6,0002.5,0022.83,0035.70,0021.57
2023-09-06 14:07:00,SystemResetWarning,0834.6,5.00,000.00,028.6,027.1,000.0,037.1,030.1,25.6,0002.5,0022.77,0036.21,0021.56
2023-09-06 14:08:00,SystemResetWarning,0835.1,5.00,000.00,028.6,027.2,000.0,037.1,030.2,26.0,0002.5,0022.76,0035.60,0021.57
2023-09-06 14:09:00,SystemResetWarning,0834.7,5.00,000.00,028.6,027.3,000.0,037.1,030.2,26.1,0002.4,0022.76,0035.54,0021.61
2023-09-06 14:10:00,SystemResetWarning,0834.5,5.00,000.00,028.7,027.3,000.0,037.1,030.2,26.3,0002.4,0022.72,0035.66,0021.55
2023-09-06 14:11:00,SystemResetWarning,0834.4,5.00,000.00,028.7,027.4,000.0,037.1,030.2,26.3,0002.3,0022.63,0035.29,0021.43
2023-09-06 14:12:00,SystemResetWarning,0834.5,4.99,000.00,028.7,027.4,000.0,037.1,030.3,26.4,0002.3,0022.42,0035.36,0021.29
2023-09-06 14:13:00,SystemResetWarning,0834.5,5.00,000.00,028.7,027.5,000.0,037.1,030.3,26.4,0002.3,0022.24,0033.95,0021.14
2023-09-06 14:14:00,SystemResetWarning,0834.6,5.00,000.00,028.7,027.5,000.0,037.1,030.3,26.0,0002.3,0022.06,0033.69,0020.99
2023-09-06 14:15:00,SystemResetWarning,0834.9,5.00,000.00,028.8,027.5,000.0,037.1,030.4,26.2,0002.2,0021.86,0033.38,0020.85
2023-09-06 14:16:00,SystemResetWarning,0834.7,4.99,000.00,028.8,027.6,000.0,037.2,030.4,26.3,0002.1,0021.68,0033.02,0020.71
2023-09-06 14:17:00,SystemResetWarning,0834.7,5.00,000.00,028.8,027.6,000.0,037.2,030.4,26.1,0001.9,0021.55,0032.13,0020.57
2023-09-06 14:18:00,SystemResetWarning,0834.7,5.00,000.00,028.8,027.6,000.0,037.2,030.5,26.3,0001.9,0021.27,0030.76,0020.29
2023-09-06 14:19:00,SystemResetWarning,0834.5,5.00,000.00,028.8,027.6,000.0,037.2,030.5,26.1,0002.0,0020.95,0029.70,0020.01
2023-09-06 14:20:00,SystemResetWarning,0834.5,5.00,000.00,028.8,027.6,000.0,037.2,030.5,26.2,0002.0,0020.70,0028.94,0019.80
2023-09-06 14:21:00,SystemResetWarning,0834.7,5.00,000.00,028.9,027.6,000.0,037.2,030.5,26.8,0001.9,0020.40,0028.04,0019.55
2023-09-06 14:22:00,SystemResetWarning,0834.9,5.00,000.00,028.9,027.7,000.0,037.2,030.6,26.6,0001.9,0020.03,0027.60,0019.22
2023-09-06 14:23:00,SystemResetWarning,0835.1,5.00,000.00,028.9,027.7,000.0,037.2,030.6,26.5,0001.8,0019.72,0027.00,0018.91
2023-09-06 14:24:00,SystemResetWarning,0834.5,5.01,000.00,028.9,027.7,000.0,037.2,030.6,27.0,0001.8,0019.46,0027.83,0018.65
2023-09-06 14:25:00,SystemResetWarning,0834.5,5.01,000.00,028.9,027.7,000.0,037.3,030.6,27.2,0001.8,0019.09,0027.77,0018.29
2023-09-06 14:26:00,SystemResetWarning,0834.5,5.00,000.00,028.9,027.7,000.0,037.3,030.6,27.0,0001.7,0018.72,0027.03,0017.92
2023-09-06 14:27:00,SystemResetWarning,0834.5,4.99,000.00,029.0,027.7,000.0,037.3,030.5,26.8,0001.6,0018.40,0027.13,0017.60
2023-09-06 14:28:00,SystemResetWarning,0834.8,4.99,000.00,029.0,027.7,000.0,037.3,030.5,26.6,0001.6,0018.10,0027.54,0017.29
2023-09-06 14:29:00,SystemResetWarning,0835.0,5.00,000.00,029.0,027.7,000.0,037.3,030.6,26.8,0001.6,0017.90,0027.43,0017.11
2023-09-06 14:30:00,SystemResetWarning,0835.2,5.00,000.00,029.0,027.8,000.0,037.3,030.6,26.7,0001.4,0017.79,0027.29,0017.00
2023-09-06 14:31:00,SystemResetWarning,0835.2,5.01,000.00,029.0,027.6,000.0,037.3,030.6,26.4,0001.4,0017.70,0027.21,0016.90
2023-09-06 14:32:00,SystemResetWarning,0834.8,4.99,000.00,029.0,026.4,000.0,037.3,030.2,26.0,0001.4,0017.59,0027.15,0016.77
2023-09-06 14:33:00,SystemResetWarning,0834.4,5.01,000.00,028.9,025.7,000.0,037.2,030.1,26.3,0001.5,0017.60,0027.44,0016.80
2023-09-06 14:34:00,SystemResetWarning,0834.5,5.01,000.00,028.8,025.8,000.0,037.2,030.1,27.0,0001.6,0017.68,0027.36,0016.87
2023-09-06 14:35:00,SystemResetWarning,0834.5,5.00,000.00,028.7,026.0,000.0,037.2,030.0,26.7,0001.7,0017.67,0026.77,0016.83
2023-09-06 14:36:00,SystemResetWarning,0835.1,4.99,000.00,028.7,026.2,000.0,037.2,030.1,27.1,0001.7,0017.70,0025.76,0016.86
2023-09-06 14:37:00,SystemResetWarning,0834.8,5.00,000.00,028.7,026.5,000.0,037.2,030.1,27.3,0001.7,0017.75,0025.95,0016.88
2023-09-06 14:38:00,SystemResetWarning,0834.5,5.00,000.00,028.7,026.7,000.0,037.2,030.1,27.3,0001.8,0017.73,0025.77,0016.88
2023-09-06 14:39:00,SystemResetWarning,0834.5,5.00,000.00,028.7,026.9,000.0,037.2,030.2,27.0,0001.9,0017.75,0024.98,0016.92
2023-09-06 14:40:00,SystemResetWarning,0834.5,5.00,000.00,028.7,027.0,000.0,037.2,030.2,27.5,0002.0,0017.80,0024.56,0016.99
2023-09-06 14:41:00,SystemResetWarning,0834.5,5.00,000.00,028.7,027.2,000.0,037.2,030.2,27.6,0002.0,0017.87,0024.75,0017.03
2023-09-06 14:42:00,SystemResetWarning,0834.4,5.00,000.00,028.7,027.3,000.0,037.2,030.3,27.3,0002.1,0017.87,0024.87,0017.01
2023-09-06 14:43:00,SystemResetWarning,0834.5,5.00,000.00,028.8,027.4,000.0,037.2,030.3,26.9,0002.2,0017.90,0025.00,0017.03
2023-09-06 14:44:00,SystemResetWarning,0834.8,5.00,000.00,028.8,027.4,000.0,037.2,030.4,26.5,0002.1,0017.93,0025.29,0017.05
2023-09-06 14:45:00,SystemResetWarning,0834.7,5.00,000.00,028.8,027.5,000.0,037.2,030.4,26.2,0001.9,0018.02,0025.38,0017.06
2023-09-06 14:46:00,SystemResetWarning,0834.9,5.00,000.00,028.8,027.6,000.0,037.2,030.4,26.0,0001.9,0018.13,0025.95,0017.18
2023-09-06 14:47:00,SystemResetWarning,0834.6,5.00,000.00,028.8,027.6,000.0,037.2,030.4,25.8,0001.8,0018.20,0026.98,0017.25
2023-09-06 14:48:00,SystemResetWarning,0835.2,4.99,000.00,028.9,027.7,000.0,037.2,030.5,26.0,0001.8,0018.24,0028.05,0017.32
2023-09-06 14:49:00,SystemResetWarning,0834.9,4.99,000.00,028.9,027.7,000.0,037.2,030.5,26.2,0001.8,0018.32,0028.05,0017.40
2023-09-06 14:50:00,SystemResetWarning,0835.1,4.99,000.00,028.9,027.7,000.0,037.2,030.5,25.9,0001.6,0018.41,0028.34,0017.43
2023-09-06 14:51:00,SystemResetWarning,0835.1,5.00,000.00,028.9,027.7,000.0,037.2,030.5,25.7,0001.7,0018.46,0028.52,0017.42
2023-09-06 14:52:00,SystemResetWarning,0835.0,5.00,000.00,028.9,026.7,000.0,037.2,030.3,25.5,0001.7,0018.48,0028.75,0017.44
2023-09-06 14:53:00,SystemResetWarning,0835.0,5.00,000.00,028.8,025.2,000.0,037.1,029.8,25.7,0001.6,0018.52,0029.00,0017.45
2023-09-06 14:54:00,SystemResetWarning,0834.9,5.01,000.00,028.6,024.7,000.0,037.1,029.7,26.2,0001.7,0018.48,0029.21,0017.42
2023-09-06 14:55:00,SystemResetWarning,0834.6,5.01,000.00,028.5,024.9,000.0,037.0,029.6,26.7,0001.7,0018.41,0028.71,0017.36
2023-09-06 14:56:00,SystemResetWarning,0834.9,4.99,000.00,028.5,025.2,000.0,037.0,029.6,26.9,0001.8,0018.37,0028.60,0017.34
2023-09-06 14:57:00,SystemResetWarning,0834.5,5.00,000.00,028.4,025.6,000.0,037.0,029.7,26.7,0001.9,0018.35,0028.31,0017.34
2023-09-06 14:58:00,SystemResetWarning,0834.5,5.00,000.00,028.4,025.9,000.0,037.0,029.8,26.2,0002.0,0018.34,0029.57,0017.35
2023-09-06 14:59:00,SystemResetWarning,0834.5,5.01,000.00,028.4,026.2,000.0,037.0,029.9,26.3,0002.1,0018.41,0028.67,0017.41
